Location: Plainartige
(45.6866°N, 1.7993°E)
Time: 16:48:04
(UTC+00:00)

Envisat - Pass Details

Date: 19 January 2022
Orbit: 764 x 765 km, 98.2° (Epoch: 19 May)

Event Time Altitude Azimuth Distance (km) Brightness Sun altitude
Rises 03:38:10 0° 28° (NNE) 3,240 6.7 -39.6°
Reaches altitude 10° 03:41:08 10° 46° (NE) 2,308 6.0 -39.0°
Maximum altitude 03:44:43 19° 91° (E) 1,755 5.4 -38.4°
Drops below altitude 10° 03:48:18 10° 136° (SE) 2,297 5.8 -37.8°
Sets 03:51:14 0° 154° (SSE) 3,217 6.4 -37.3°
